Sierra Vista Municipal Libby Army Air Field Fort Huachuca Sierra Vista US
ICAO: KFHU
IATA: FHU
Category: Medium
Scheduled Services: Yes

Elevation: 4719 ft
TransAlt. 18000 ft.

Airport Communications:
ASOS:119.675
ATIS:134.75
CTAF:124.95
LIBBY GCA:127.05
GND:121.7
LIBBY OPS:122.95
LIBBY TWR:124.95
UNICOM:122.95

KFHU Zoom In..

If you have problems with the map follow the link
https://www.worldairports.se/pages/airport.php?
ICAO=KFHU

Runways:

(A) RW 03 length 4285 ft width 75 ft
---- / hdg 24

(B) RW 08 length 12001 ft width 150 ft
---- / hdg 77

(C) RW 12 length 5366 ft width 100 ft
---- / hdg 114

(D) RW 21 length 4285 ft width 75 ft
---- / hdg 204

(E) RW 26 length 12001 ft width 150 ft
ILS 109.90 / hdg 257

(F) RW 30 length 5366 ft width 100 ft
---- / hdg 294

Location; KFHU
Day. 22 / Time. 11.58 Zulu
* Altimeter: 30.10
* Temperature: 06° c. 42.8°f.
* Wind from: 280° Speed 08 kn.
Dewpoint: 06° c.
Visibility: 8 Statute Miles.
Clouds: Clear (automated report).

KFHU 221158Z AUTO 28008KT 8SM CLR 06/06 A3010 RMK AO2 SLP167 70020 T00630056 10097 20063 56007


Wind From 280°
Speed 08 kn.

 
 
jpsmedia worldairports.se 2020   terms of use